Live-Position
3D-Globus wird geladen...
Über Starlink 3936
Group: 3 satellites
Beschreibung wird geladen...
Nächste Überflüge
Passes for default location (London). Set your location on the main map for personalized predictions.
Höhenverlauf
Loading altitude history...
No altitude history available
Zweizeiliger Elementsatz
1 52674U 22053U 26107.33336806 .00004483 00000-0 23160-3 0 9998
2 52674 53.2183 339.8692 0001583 81.5812 313.6903 15.18220240 5768
Epoch: 17. Apr. 2026 •
Age: 9 hours
Aktueller Status
Höhe 512.2 km
Geschwindigkeit 7.61 km/s
Subsatellitenpunkt 0.31°N,
64.2°E
Startdatum 18. Mai 2022
Alter 3.9 years
Typ internet
Startgruppe
Falcon 9 •
Group 4-18 •
47 satellites
Starlink 4004
52656
Starlink 4084 52657
Starlink 4082 52658
Starlink 3960 52659
Starlink 4081 52660
Starlink 4044 52662
Starlink 4037 52663
Starlink 4070 52664
Starlink 4064 52665
Starlink 4079 52666
Starlink 4076 52667
Starlink 4067 52668
Starlink 3972 52669
Starlink 4075 52670
Starlink 4071 52671
Starlink 4073 52672
Starlink 3976 52673
Starlink 3934 52675
Starlink 4006 52676
Starlink 4074 52678
...and 26 more
Technische Details
Klassifizierung Payload
Masse 297.00 kg
Trockenmasse 275.00 kg
Gesamtmasse 297.00 kg
Länge 0.20 m
Durchmesser 2.80 m
Spannweite 9.00 m
Form Box + pan
Hersteller SPXS
Bus-Typ Starlink
Phasenstatus In Orbit
Besitzer/Staat SPXS/US
Most Searched
Loading...